Regional Weather Roundup
Issued by NWS

Home | Current Version | Previous Version | Graphics & Text | Print | Product List | Glossary On
Versions: 1 2 3 4 5 6 7 8 9 10 11 12 13 14 15 16 17 18 19 20 21 22 23 24 25 26 27 28 29 30 31 32 33 34 35 36 37 38 39 40 41 42 43 44 45 46 47 48 49 50
646
ASUS45 KBOU 291307
RWRCO

WEATHER ROUNDUP FOR COLORADO
NATIONAL WEATHER SERVICE DENVER/BOULDER CO
700 AM MDT MON MAY 29 2017

NOTE: "FAIR" INDICATES FEW OR NO CLOUDS BELOW 12000 FEET WITH NO
SIGNIFICANT WEATHER AND/OR OBSTRUCTIONS TO VISIBILITY.

COZ001>005-013-030-031-291400-
...NORTHWEST COLORADO...

CITY           SKY/WX    TMP DP  RH WIND       PRES   REMARKS
CRAIG          FAIR      38  35  89 CALM      30.29R
HAYDEN         FAIR      41  30  65 E9        30.29R
MEEKER         FAIR      41  32  70 VRB3      30.29R
RABBIT EARS PA FAIR      36  28  75 E5        30.42S
STEAMBOAT SPGS FAIR      37  32  84 CALM      30.30S
WALDEN           N/A     34  30  86 CALM      30.38R
$$

COZ006>008-011-291400-
...WEST CENTRAL VALLEYS...

CITY           SKY/WX    TMP DP  RH WIND       PRES   REMARKS
GRAND JUNCTION FAIR      54  30  40 SE6       30.18R
MONTROSE       FAIR      47  25  42 SE6       30.25R
EAGLE          SUNNY     39  30  70 CALM      30.34R
RIFLE          FAIR      46  30  53 CALM      30.25R
DELTA          FAIR      52  28  39 SE3       30.23R
NUCLA          FAIR      46  23  39 E6        30.26S
$$

COZ017>023-064>068-291400-
...SOUTHWEST COLORADO...

CITY           SKY/WX    TMP DP  RH WIND       PRES   REMARKS
DURANGO        FAIR      38  24  57 CALM      30.25R
CORTEZ         FAIR      39  30  70 E3        30.22R
PAGOSA SPRINGS FAIR      37  22  54 CALM      30.31S
TELLURIDE      FAIR      40  20  44 SE6       30.38S
WOLF CREEK PAS NOT AVBL
$$

COZ009-010-012-014-032>034-037-058>063-291400-
...CENTRAL COLORADO...

CITY           SKY/WX    TMP DP  RH WIND       PRES   REMARKS
ASPEN          FAIR      38  29  70 E3        30.32R
BUENA VISTA    FAIR      41  27  57 CALM      30.36R
COPPER MTN     FAIR      36  23  60 SW5       30.48S
BERTHOUD PASS  FAIR      28  18  64 NW10      30.50R WCI  19
COTTONWOOD PAS FAIR      43  23  45 SW6       30.41S
GUNNISON       FAIR      33  25  72 CALM      30.36R
KREMMLING      FAIR      41  36  81 CALM      30.37R
LEADVILLE      FAIR      30  24  78 CALM      30.40R
MONARCH PASS   FAIR      32  27  80 E6        30.58S WCI  26
SALIDA         FAIR      42  28  58 CALM      30.43R
SUNLIGHT       FAIR      37  23  56 CALM      30.47R
WILKERSON PASS FAIR      32  27  80 S6        30.49R WCI  26
$$

COZ069>075-291400-
...SAN LUIS VALLEY/SANGRE DE CRISTO MOUNTAINS...

CITY           SKY/WX    TMP DP  RH WIND       PRES   REMARKS
ALAMOSA        FAIR      42  30  62 CALM      30.31R
DEL NORTE      FAIR      42  21  43 W14       30.34R
LA VETA PASS   FAIR      36  30  80 N6        30.53S
SAGUACHE       NOT AVBL
$$

COZ035-036-038>040-291400-
...NORTHERN COLORADO FRONT RANGE...

CITY           SKY/WX    TMP DP  RH WIND       PRES   REMARKS
DENVER INTL AP FAIR      50  43  77 SW10      30.26R
DMNS CITY PARK   N/A     51  40  66 S8        30.26F
AURORA         MOSUNNY   48  42  79 S7        30.27S
FRONT RANGE AP MOSUNNY   50  45  81 S8        30.27R
ERIE MUNI ARPT FAIR      49  46  88 N6        30.26R
BOULDER MUN AP FAIR      50  43  76 N3        30.25S
CENTENNIAL     FAIR      47  41  80 S6        30.28R
BROOMFIELD     MOSUNNY   48  43  81 CALM      30.28R
FORT COLLINS   FAIR      50  44  80 N6        30.26S
LONGMONT       FAIR      53  44  71 CALM      30.27S HAZE
$$

COZ041-046-047-076>085-087-088-291400-
...PIKES PEAK/PALMER DIVIDE AND SOUTHERN FOOTHILLS...

CITY           SKY/WX    TMP DP  RH WIND       PRES   REMARKS
COLO. SPRINGS  FAIR      51  39  63 NW6       30.31R
A. F. ACADEMY  FAIR      43  39  85 NE5       30.31R
SCHRIEVER AFB  FAIR      51  38  60 NW7       30.30R
CHEYENNE MTN   FAIR      51  35  53 E3        30.26S
ELLICOTT       FAIR     N/A N/A N/A MISG      30.28R
FALCON         FAIR      51  37  58 N5        30.33R
FORT CARSON    FAIR      49  38  66 N3        30.28R
LIMON          FAIR      47  44  90 W8        30.27R
MONUMENT HILL  FAIR      43  37  81 S3        30.33S
CANON CITY     NOT AVBL
WALSENBURG     FAIR      48  45  87 MISG      30.32R
TRINIDAD       FAIR      47  37  68 W9        30.29R
$$

COZ042>045-048>051-090-091-291400-
...NORTHEAST COLORADO...

CITY           SKY/WX    TMP DP  RH WIND       PRES   REMARKS
GREELEY ARPT   FAIR      50  45  83 N3        30.26R
AKRON          FAIR      53  44  71 NW9       30.23R
BURLINGTON     FAIR      56  46  69 N10       30.20R
WRAY           FAIR      52  46  82 NW8       30.20R
YUMA           FAIR      52  43  71 W10       30.21R
STERLING       NOT AVBL
HOLYOKE        NOT AVBL
FORT MORGAN    FAIR      53  44  70 NW7       30.24S
$$

COZ086-089-092>099-291400-
...SOUTHEAST COLORADO...

CITY           SKY/WX    TMP DP  RH WIND       PRES   REMARKS
PUEBLO         FAIR      53  42  66 W5        30.26R
LA JUNTA       FAIR      53  46  77 W12       30.25R
LAMAR          PTSUNNY   49  45  86 CALM      30.19R
SPRINGFIELD      N/A     50  47  89 W5        30.23R
$$




USA.gov is the U.S. government's official web portal to all federal, state and local government web resources and services.